TimeMST,TemperatureF,Dew PointF,Humidity,Sea Level PressureIn,VisibilityMPH,Wind Direction,Wind SpeedMPH,Gust SpeedMPH,PrecipitationIn,Events,Conditions,WindDirDegrees,DateUTC
12:16 AM,-27.4,-34.6,69,30.12,-9999.0,Calm,Calm,-,N/A,,Scattered Clouds,0,2013-01-15 07:16:00
12:36 AM,-29.2,-36.4,68,30.13,-9999.0,Calm,Calm,-,N/A,Snow,Light Snow,0,2013-01-15 07:36:00
1:16 AM,-31.0,-40.0,62,30.15,-9999.0,Calm,Calm,-,N/A,,Clear,0,2013-01-15 08:16:00
1:36 AM,-31.0,-40.0,62,30.14,-9999.0,Calm,Calm,-,N/A,,Scattered Clouds,0,2013-01-15 08:36:00
1:55 AM,-31.0,-40.0,62,30.16,-9999.0,Calm,Calm,-,N/A,,Mostly Cloudy,0,2013-01-15 08:55:00
2:16 AM,-32.8,-40.0,68,30.16,-9999.0,Calm,Calm,-,N/A,,Scattered Clouds,0,2013-01-15 09:16:00
2:36 AM,-31.0,-40.0,62,30.17,-9999.0,Calm,Calm,-,N/A,,Clear,0,2013-01-15 09:36:00
2:55 AM,-31.0,-40.0,62,30.17,-9999.0,Calm,Calm,-,N/A,,Clear,0,2013-01-15 09:55:00
3:16 AM,-31.0,-40.0,62,30.18,-9999.0,Calm,Calm,-,N/A,,Mostly Cloudy,0,2013-01-15 10:16:00
3:56 AM,-27.4,-34.6,69,30.19,-9999.0,Calm,Calm,-,N/A,,Overcast,0,2013-01-15 10:56:00
4:16 AM,-25.6,-34.6,63,30.19,-9999.0,Calm,Calm,-,N/A,,Overcast,0,2013-01-15 11:16:00
4:36 AM,-25.6,-32.8,69,30.20,-9999.0,Calm,Calm,-,N/A,,Overcast,0,2013-01-15 11:36:00
5:16 AM,-25.6,-32.8,69,30.20,-9999.0,Calm,Calm,-,N/A,Snow,Light Snow,0,2013-01-15 12:16:00
5:36 AM,-25.6,-32.8,69,30.21,-9999.0,Calm,Calm,-,N/A,,Overcast,0,2013-01-15 12:36:00
5:56 AM,-23.8,-32.8,63,30.22,-9999.0,Calm,Calm,-,N/A,,Overcast,0,2013-01-15 12:56:00
6:15 AM,-23.8,-32.8,63,30.21,-9999.0,Calm,Calm,-,N/A,,Overcast,0,2013-01-15 13:15:00
6:36 AM,-22.0,-31.0,63,30.22,-9999.0,Calm,Calm,-,N/A,,Overcast,0,2013-01-15 13:36:00
6:56 AM,-22.0,-31.0,63,30.22,-9999.0,Calm,Calm,-,N/A,,Overcast,0,2013-01-15 13:56:00
7:16 AM,-22.0,-31.0,63,30.24,-9999.0,Calm,Calm,-,N/A,Snow,Light Snow,0,2013-01-15 14:16:00
7:36 AM,-22.0,-31.0,63,30.25,-9999.0,Calm,Calm,-,N/A,,Overcast,0,2013-01-15 14:36:00
7:56 AM,-20.2,-27.4,69,30.26,-9999.0,Calm,Calm,-,N/A,,Overcast,0,2013-01-15 14:56:00
8:16 AM,-20.2,-27.4,69,30.27,-9999.0,Calm,Calm,-,N/A,,Overcast,0,2013-01-15 15:16:00
8:36 AM,-18.4,-25.6,70,30.27,-9999.0,Calm,Calm,-,N/A,,Overcast,0,2013-01-15 15:36:00
8:56 AM,-18.4,-25.6,70,30.28,-9999.0,Calm,Calm,-,N/A,,Overcast,0,2013-01-15 15:56:00
9:16 AM,-16.6,-23.8,70,30.28,-9999.0,Calm,Calm,-,N/A,,Overcast,0,2013-01-15 16:16:00
9:36 AM,-16.6,-23.8,70,30.29,-9999.0,Calm,Calm,-,N/A,,Overcast,0,2013-01-15 16:36:00
9:56 AM,-16.6,-23.8,70,30.30,-9999.0,Calm,Calm,-,N/A,,Overcast,0,2013-01-15 16:56:00
10:16 AM,-14.8,-22.0,70,30.30,-9999.0,Calm,Calm,-,N/A,,Overcast,0,2013-01-15 17:16:00
10:36 AM,-13.0,-18.4,77,30.30,-9999.0,Calm,Calm,-,N/A,,Overcast,0,2013-01-15 17:36:00
10:56 AM,-9.4,-16.6,71,30.29,-9999.0,Calm,Calm,-,N/A,,Overcast,0,2013-01-15 17:56:00
11:16 AM,-9.4,-16.6,71,30.27,-9999.0,Calm,Calm,-,N/A,,Overcast,0,2013-01-15 18:16:00
11:36 AM,-9.4,-16.6,71,30.27,-9999.0,Calm,Calm,-,N/A,,Overcast,0,2013-01-15 18:36:00
11:56 AM,-7.6,-16.6,65,30.27,-9999.0,Calm,Calm,-,N/A,,Overcast,0,2013-01-15 18:56:00
12:16 PM,-5.8,-16.6,60,30.27,-9999.0,Calm,Calm,-,N/A,,Overcast,0,2013-01-15 19:16:00
12:36 PM,-5.8,-16.6,60,30.27,-9999.0,Calm,Calm,-,N/A,,Overcast,0,2013-01-15 19:36:00
12:56 PM,-4.0,-14.8,60,30.27,-9999.0,Calm,Calm,-,N/A,,Overcast,0,2013-01-15 19:56:00
1:16 PM,-4.0,-14.8,60,30.26,-9999.0,Calm,Calm,-,N/A,,Overcast,0,2013-01-15 20:16:00
1:36 PM,-2.2,-14.8,55,30.27,-9999.0,Calm,Calm,-,N/A,,Overcast,0,2013-01-15 20:36:00
1:56 PM,-4.0,-14.8,60,30.27,-9999.0,Calm,Calm,-,N/A,,Overcast,0,2013-01-15 20:56:00
2:16 PM,-2.2,-14.8,55,30.27,-9999.0,Calm,Calm,-,N/A,,Overcast,0,2013-01-15 21:16:00
2:36 PM,-2.2,-14.8,55,30.27,-9999.0,Calm,Calm,-,N/A,,Overcast,0,2013-01-15 21:36:00
2:56 PM,-2.2,-14.8,55,30.29,-9999.0,Calm,Calm,-,N/A,,Overcast,0,2013-01-15 21:56:00
3:16 PM,-2.2,-13.0,60,30.30,-9999.0,Calm,Calm,-,N/A,,Overcast,0,2013-01-15 22:16:00
3:36 PM,-2.2,-13.0,60,30.30,-9999.0,Calm,Calm,-,N/A,Snow,Light Snow,0,2013-01-15 22:36:00
3:56 PM,-2.2,-13.0,60,30.30,-9999.0,Calm,Calm,-,N/A,Snow,Light Snow,0,2013-01-15 22:56:00
4:16 PM,-2.2,-13.0,60,30.31,-9999.0,Calm,Calm,-,N/A,Snow,Light Snow,0,2013-01-15 23:16:00
4:36 PM,-2.2,-11.2,66,30.31,-9999.0,Calm,Calm,-,N/A,Snow,Light Snow,0,2013-01-15 23:36:00
4:56 PM,-2.2,-11.2,66,30.31,-9999.0,Calm,Calm,-,N/A,Snow,Light Snow,0,2013-01-15 23:56:00
5:16 PM,-2.2,-11.2,66,30.31,-9999.0,Calm,Calm,-,N/A,Snow,Light Snow,0,2013-01-16 00:16:00
5:36 PM,-2.2,-9.4,71,30.31,-9999.0,Calm,Calm,-,N/A,Snow,Light Snow,0,2013-01-16 00:36:00
5:56 PM,-2.2,-9.4,71,30.32,-9999.0,Calm,Calm,-,N/A,Snow,Light Snow,0,2013-01-16 00:56:00
6:16 PM,-2.2,-9.4,71,30.33,-9999.0,Calm,Calm,-,N/A,Snow,Light Snow,0,2013-01-16 01:16:00
6:36 PM,-2.2,-9.4,71,30.35,-9999.0,Calm,Calm,-,N/A,Snow,Light Snow,0,2013-01-16 01:36:00
6:55 PM,-2.2,-9.4,71,30.35,-9999.0,Calm,Calm,-,N/A,Snow,Light Snow,0,2013-01-16 01:55:00
7:16 PM,-2.2,-7.6,78,30.35,-9999.0,Calm,Calm,-,N/A,Snow,Light Snow,0,2013-01-16 02:16:00
7:36 PM,-0.4,-7.6,72,30.35,-9999.0,Calm,Calm,-,N/A,Snow,Light Snow,0,2013-01-16 02:36:00
7:56 PM,-0.4,-7.6,72,30.35,-9999.0,Calm,Calm,-,N/A,Snow,Light Snow,0,2013-01-16 02:56:00
8:16 PM,-0.4,-7.6,72,30.36,-9999.0,Calm,Calm,-,N/A,Snow,Light Snow,0,2013-01-16 03:16:00
8:35 PM,-0.4,-7.6,72,30.35,-9999.0,Calm,Calm,-,N/A,,Overcast,0,2013-01-16 03:35:00
8:56 PM,-0.4,-7.6,72,30.36,-9999.0,Calm,Calm,-,N/A,Snow,Light Snow,0,2013-01-16 03:56:00
9:16 PM,-0.4,-7.6,72,30.37,-9999.0,Calm,Calm,-,N/A,,Overcast,0,2013-01-16 04:16:00
9:36 PM,-0.4,-7.6,72,30.38,-9999.0,Calm,Calm,-,N/A,,Overcast,0,2013-01-16 04:36:00
9:56 PM,-0.4,-7.6,72,30.37,-9999.0,Calm,Calm,-,N/A,Snow,Light Snow,0,2013-01-16 04:56:00
10:16 PM,-0.4,-7.6,72,30.38,-9999.0,Calm,Calm,-,N/A,,Overcast,0,2013-01-16 05:16:00
10:36 PM,-0.4,-7.6,72,30.39,-9999.0,Calm,Calm,-,N/A,,Overcast,0,2013-01-16 05:36:00
11:16 PM,-0.4,-5.8,78,30.40,-9999.0,Calm,Calm,-,N/A,Snow,Light Snow,0,2013-01-16 06:16:00
11:35 PM,1.4,-5.8,72,30.39,-9999.0,Calm,Calm,-,N/A,Snow,Light Snow,0,2013-01-16 06:35:00
11:56 PM,1.4,-5.8,72,30.40,-9999.0,Calm,Calm,-,N/A,Snow,Light Snow,0,2013-01-16 06:56:00